LDZALDSP [SP890]

Details From LDZA - Zagreb
To LDSP - Split
Flight Number SP890
Tags Real Commercial Generated
Created
Modified
Stats Distance 132 nm / 245 km
Max Altitude 0 ft / 0 m
Waypoints 2
Social Downloads 27
Likes 0
Share VATSIM

Download

Looking for another format? Having issues loading an existing format? Contact us
Advertisement - Login to hide

Notes

Generated

Route

LDZA LDSP

ID Type Via Altitude Latitude Longitude Leg Dist Tot Dist Heading (true) Name
O LDZA APT - 0 ft / 0 m 45.73188˚ 16.05197˚ - 0 nm - -
O LDSP APT - 0 ft / 0 m 43.53205˚ 16.28558˚ 132 nm 132 nm 176° / 176° -

Altitude Profile

Advertisement - Login to hide

LDZA

Details ICAO LDZA (ZAG)
Name Zagreb
Region Croatia
Timezone Europe/Zagreb (UTC+1.0)
Stats Elevation 353 ft / 108 m (AMSL)
Location 45.741890° 16.067200°
Runways 1
Magnetic Variation 3.958° E

METAR

LDZA 130330Z 07006KT 020V110 9999 -RA SCT007 OVC030 02/01 Q1019 NOSIG

Decode

TAF

TAF AMD LDZA 122357Z 1300/1400 03012KT 9999 BKN030 TX07/1300Z TN01/1323Z PROB40 TEMPO 1300/1303 03015G25KT PROB40 TEMPO 1300/1312 4000 RA BKN010 OVC030 PROB30 TEMPO 1305/1312 3000 -RASN BKN006 OVC020 BECMG 1306/1308 03008KT BECMG 1310/1312 VRB02KT PROB30 1318/1400 2000 BR BKN005

Decode

Departure Runways

ID Width Length Bearing (true) Bearing (mag) Surface Threshold Offset Overrun Length
05 148 ft / 45 m 10,659 ft / 3,249 m 46.69° 42.73° Asphalt 0 ft / 0 m 195 ft / 59 m
23 148 ft / 45 m 10,659 ft / 3,249 m 226.71° 222.75° Asphalt 0 ft / 0 m 195 ft / 59 m

LDSP

Details ICAO LDSP (SPU)
Name SPLIT
Region Croatia
Timezone Europe/Zagreb (UTC+1.0)
Stats Elevation 79 ft / 24 m (AMSL)
Location 43.539026° 16.298112°
Runways 1
Magnetic Variation 3.837° E

METAR

LDSP 130330Z AUTO 34010KT 310V010 9999 -RA SCT021/// BKN026/// BKN033/// 12/09 Q1015 RERA NOSIG

Decode

TAF

TAF LDSP 122325Z 1300/1400 14008KT 9999 BKN035 TX15/1300Z TN07/1323Z BECMG 1300/1302 23007KT TEMPO 1300/1312 RA PROB30 TEMPO 1300/1304 4000 SHRA SCT010 FEW020TCU BKN030 BECMG 1302/1304 34012KT BECMG 1307/1309 32007KT

Decode

Destination Runways

ID Width Length Bearing (true) Bearing (mag) Surface Threshold Offset Overrun Length
05 148 ft / 45 m 8,357 ft / 2,547 m 52.48° 48.64° Asphalt 0 ft / 0 m 76 ft / 23 m
23 148 ft / 45 m 8,357 ft / 2,547 m 232.50° 228.66° Asphalt 525 ft / 160 m 820 ft / 250 m

Approach Navaids

Runway Type Ident Frequency Range Bearing (true) Bearing (mag) Slope Elevation
05 Localiser IST 110.50 MHz 25 nm / 46 km 52.57° 48.73° - 69 ft / 21 m (AMSL)
05 Glidescope IST 110.50 MHz 25 nm / 46 km 52.57° 48.73° 3.00° 52 ft / 16 m (AMSL)

Popular Alternatives